Location: Brno
(49.2000°N, 16.6333°E)
Time: 01:53:37
(UTC+01:00)

ISS - Visible Passes

Search period start: 21 November 2017 00:00
Search period end: 01 December 2017 00:00
Orbit: 402 x 407 km, 51.6° (Epoch: 21 November)

Date Brightness Start Highest point End Pass type
(mag) Time Alt. Az. Time Alt. Az. Time Alt. Az.
28 Nov -1.9 18:16:17 10° SSW 18:17:52 22° S 18:17:52 22° S visible
29 Nov -2.0 17:24:37 10° S 17:27:00 19° SE 17:27:47 17° ESE visible
29 Nov -0.7 18:59:49 10° WSW 19:00:27 15° WSW 19:00:27 15° WSW visible
30 Nov -1.4 16:33:44 10° SSE 16:34:52 11° SE 16:36:01 10° ESE visible
30 Nov -3.2 18:07:33 10° SW 18:10:17 48° S 18:10:17 48° S visible
